Weather History for KGVL - September, 2013

Change the Weather History Date:

Wednesday, September 25, 2013

  Actual Average Record
Temperature  
Mean Temperature 63 °F 69 °F  
Max Temperature 64 °F 78 °F 92 °F (1961)
Min Temperature 61 °F 59 °F 45 °F (1937)
Degree Days  
Heating Degree Days 2 1  
Month to date heating degree days 2 5  
Since 1 July heating degree days 4 5  
Cooling Degree Days 0 4  
Month to date cooling degree days 213 197  
Year to date cooling degree days 1365 1523  
Growing Degree Days 12 (Base 50)    
Moisture  
Dew Point 60 °F    
Average Humidity 94    
Maximum Humidity 97    
Minimum Humidity 90    
Precipitation  
Precipitation 0.77 in 0.16 in 2.27 in (1997)
Month to date precipitation 1.86 3.90  
Year to date precipitation 43.76 40.15  
Sea Level Pressure  
Sea Level Pressure 29.91 in    
Wind  
Wind Speed 8 mph (East)    
Max Wind Speed 14 mph    
Max Gust Speed 20 mph    
Visibility 4 miles    
Events Rain    
T = Trace of Precipitation, MM = Missing Value Source: NWS Daily Summary

Daily Weather History Graph

Daily Weather History Graph

Search for Another Location

Airport or City:

Trip Planner

Search our weather history database for the weather conditions in past years. The results will help you decide how hot, cold, wet, or windy it might be!

Date:

Astronomy

Sep. 25, 2013 Rise Set
Actual Time 7:25 AM EDT 7:27 PM EDT
Civil Twilight 7:00 AM EDT 7:52 PM EDT
Nautical Twilight 6:31 AM EDT 8:21 PM EDT
Astronomical Twilight 6:02 AM EDT 8:51 PM EDT
Moon 11:46 PM EDT (9/25) 1:17 PM EDT (9/25)
Length of Visible Light 12h 51m
Length of Day
12h 01m
Waning Gibbous, 64% of the Moon is Illuminated
Sep 25
Waning Gibbous
Sep 26
Last Quarter
Oct 4
New
Oct 11
First Quarter
Oct 18
Full

Hourly Weather History & Observations

Time (EDT) Temp. Dew Point Humidity Pressure Visibility Wind Dir Wind Speed Gust Speed Precip Events Conditions
12:53 AM 63.0 °F 62.1 °F 97% 29.92 in 4.0 mi East 6.9 mph - 0.01 in Rain Light Rain
1:53 AM 63.0 °F 62.1 °F 97% 29.90 in 5.0 mi East 8.1 mph - 0.01 in   Overcast
2:53 AM 63.0 °F 62.1 °F 97% 29.88 in 5.0 mi East 10.4 mph - 0.00 in Rain Light Rain
3:49 AM 62.6 °F 62.6 °F 100% 29.90 in 3.0 mi East 9.2 mph - 0.00 in   Overcast
3:53 AM 63.0 °F 62.1 °F 97% 29.86 in 3.0 mi East 9.2 mph - 0.00 in   Overcast
4:40 AM 62.6 °F 60.8 °F 94% 29.88 in 6.0 mi East 9.2 mph - N/A   Overcast
4:53 AM 63.0 °F 61.0 °F 93% 29.85 in 5.0 mi East 10.4 mph - 0.00 in Rain Light Rain
5:53 AM 63.0 °F 61.0 °F 93% 29.88 in 2.0 mi Variable 3.5 mph - 0.11 in Rain Heavy Rain
5:56 AM 62.6 °F 60.8 °F 94% 29.91 in 1.5 mi Calm Calm - 0.06 in Rain Heavy Rain
6:03 AM 62.6 °F 60.8 °F 94% 29.92 in 0.8 mi Calm Calm - 0.27 in Rain Heavy Rain
6:09 AM 62.6 °F 60.8 °F 94% 29.92 in 1.2 mi North 4.6 mph - 0.30 in Rain Heavy Rain
6:12 AM 62.6 °F 60.8 °F 94% 29.91 in 2.0 mi NNE 5.8 mph - 0.30 in Rain Light Rain
6:14 AM 62.6 °F 60.8 °F 94% 29.91 in 2.5 mi NNE 5.8 mph - 0.31 in Rain Light Rain
6:21 AM 62.6 °F 60.8 °F 94% 29.90 in 3.0 mi ENE 5.8 mph - 0.31 in Rain Light Rain
6:43 AM 62.6 °F 60.8 °F 94% 29.92 in 4.0 mi Variable 3.5 mph - 0.33 in Rain Light Rain
6:53 AM 63.0 °F 61.0 °F 93% 29.88 in 3.0 mi ENE 5.8 mph - 0.34 in Rain Light Rain
7:00 AM 62.6 °F 60.8 °F 94% 29.91 in 4.0 mi ENE 5.8 mph - 0.01 in Rain Light Rain
7:13 AM 62.6 °F 60.8 °F 94% 29.91 in 6.0 mi ENE 5.8 mph - 0.01 in Rain Light Rain
7:25 AM 62.6 °F 60.8 °F 94% 29.91 in 7.0 mi ENE 8.1 mph - 0.01 in   Overcast
7:39 AM 62.6 °F 60.8 °F 94% 29.91 in 7.0 mi ENE 6.9 mph - 0.01 in   Overcast
7:53 AM 63.0 °F 61.0 °F 93% 29.89 in 5.0 mi East 9.2 mph - 0.02 in Rain Light Rain
8:20 AM 62.6 °F 60.8 °F 94% 29.92 in 2.0 mi ENE 5.8 mph - 0.02 in Rain Rain
8:26 AM 62.6 °F 60.8 °F 94% 29.93 in 3.0 mi ENE 8.1 mph - 0.02 in Rain Light Rain
8:53 AM 62.1 °F 60.1 °F 93% 29.89 in 3.0 mi ENE 8.1 mph - 0.03 in Rain Light Rain
9:53 AM 63.0 °F 60.1 °F 90% 29.91 in 3.0 mi East 11.5 mph - 0.01 in Rain Light Rain
10:53 AM 63.0 °F 61.0 °F 93% 29.92 in 2.5 mi East 8.1 mph - 0.03 in Rain Rain
11:14 AM 62.6 °F 60.8 °F 94% 29.94 in 2.5 mi East 6.9 mph - 0.01 in Rain Light Rain
11:53 AM 63.0 °F 61.0 °F 93% 29.91 in 3.0 mi East 10.4 mph - 0.01 in Rain Light Rain
12:29 PM 62.6 °F 60.8 °F 94% 29.94 in 7.0 mi East 9.2 mph - 0.00 in   Overcast
12:38 PM 62.6 °F 60.8 °F 94% 29.94 in 7.0 mi East 8.1 mph - 0.00 in   Overcast
12:53 PM 63.0 °F 60.1 °F 90% 29.91 in 2.5 mi East 9.2 mph - 0.01 in Rain Light Rain
1:03 PM 62.6 °F 60.8 °F 94% 29.93 in 3.0 mi East 11.5 mph - 0.00 in Rain Light Rain
1:15 PM 62.6 °F 60.8 °F 94% 29.93 in 3.0 mi East 11.5 mph - 0.00 in   Overcast
1:38 PM 62.6 °F 60.8 °F 94% 29.92 in 2.0 mi East 8.1 mph - 0.01 in Rain Rain
1:49 PM 62.6 °F 60.8 °F 94% 29.92 in 1.5 mi ESE 8.1 mph - 0.04 in Rain Rain
1:53 PM 63.0 °F 60.1 °F 90% 29.89 in 1.5 mi East 9.2 mph - 0.05 in Rain Rain
2:14 PM 62.6 °F 60.8 °F 94% 29.91 in 2.0 mi East 9.2 mph - 0.07 in Rain Light Rain
2:18 PM 62.6 °F 60.8 °F 94% 29.91 in 3.0 mi ESE 10.4 mph - 0.07 in Rain Light Rain
2:39 PM 62.6 °F 60.8 °F 94% 29.90 in 2.0 mi East 8.1 mph - 0.09 in Rain Rain
2:51 PM 62.6 °F 60.8 °F 94% 29.90 in 3.0 mi East 9.2 mph - 0.09 in Rain Light Rain
2:53 PM 63.0 °F 60.1 °F 90% 29.87 in 3.0 mi East 8.1 mph - 0.09 in Rain Light Rain
3:10 PM 62.6 °F 60.8 °F 94% 29.89 in 2.0 mi East 12.7 mph 19.6 mph 0.01 in Rain Light Rain
3:16 PM 62.6 °F 60.8 °F 94% 29.89 in 1.5 mi East 8.1 mph 19.6 mph 0.02 in Rain Light Rain
3:29 PM 62.6 °F 60.8 °F 94% 29.90 in 2.0 mi East 10.4 mph - 0.03 in Rain Light Rain
3:35 PM 62.6 °F 60.8 °F 94% 29.90 in 3.0 mi East 8.1 mph - 0.03 in Rain Light Rain
3:53 PM 62.1 °F 59.0 °F 90% 29.87 in 4.0 mi East 8.1 mph - 0.03 in Rain Light Rain
4:01 PM 62.6 °F 60.8 °F 94% 29.89 in 2.0 mi East 8.1 mph - 0.01 in Rain Light Rain
4:05 PM 62.6 °F 60.8 °F 94% 29.89 in 1.5 mi East 9.2 mph - 0.01 in Rain Rain
4:16 PM 62.6 °F 60.8 °F 94% 29.89 in 2.0 mi East 11.5 mph - 0.02 in Rain Light Rain
4:23 PM 62.6 °F 60.8 °F 94% 29.89 in 3.0 mi East 8.1 mph - 0.02 in Rain Light Rain
4:33 PM 62.6 °F 60.8 °F 94% 29.89 in 3.0 mi East 6.9 mph - 0.02 in Rain Light Rain
4:53 PM 62.1 °F 60.1 °F 93% 29.87 in 4.0 mi East 3.5 mph - 0.02 in Rain Light Rain
5:34 PM 62.6 °F 60.8 °F 94% 29.90 in 5.0 mi ENE 5.8 mph - 0.01 in   Overcast
5:53 PM 62.1 °F 60.1 °F 93% 29.88 in 5.0 mi East 9.2 mph - 0.01 in   Overcast
6:53 PM 62.1 °F 59.0 °F 90% 29.88 in 8.0 mi East 5.8 mph - N/A   Overcast
7:37 PM 62.6 °F 59.0 °F 88% 29.91 in 6.0 mi East 8.1 mph - N/A   Overcast
7:53 PM 61.0 °F 59.0 °F 93% 29.88 in 6.0 mi ENE 8.1 mph - N/A   Overcast
8:53 PM 62.1 °F 60.1 °F 93% 29.90 in 7.0 mi East 5.8 mph - N/A   Overcast
9:21 PM 60.8 °F 59.0 °F 94% 29.93 in 8.0 mi East 8.1 mph - N/A   Overcast
9:29 PM 60.8 °F 59.0 °F 94% 29.93 in 8.0 mi East 6.9 mph - N/A   Overcast
9:53 PM 61.0 °F 59.0 °F 93% 29.90 in 9.0 mi East 9.2 mph - N/A   Overcast
10:07 PM 60.8 °F 57.2 °F 88% 29.93 in 9.0 mi East 8.1 mph - N/A   Overcast
10:22 PM 60.8 °F 59.0 °F 94% 29.94 in 8.0 mi East 4.6 mph - N/A   Overcast
10:32 PM 60.8 °F 57.2 °F 88% 29.94 in 8.0 mi ENE 4.6 mph - N/A   Overcast
10:49 PM 60.8 °F 57.2 °F 88% 29.94 in 7.0 mi ENE 6.9 mph - N/A   Overcast
10:53 PM 61.0 °F 57.9 °F 90% 29.91 in 7.0 mi ENE 6.9 mph - N/A   Overcast
11:02 PM 60.8 °F 57.2 °F 88% 29.94 in 7.0 mi ENE 6.9 mph - N/A   Overcast
11:19 PM 60.8 °F 59.0 °F 94% 29.93 in 6.0 mi ENE 8.1 mph - N/A   Overcast
11:46 PM 60.8 °F 57.2 °F 88% 29.94 in 6.0 mi ENE 3.5 mph - N/A   Overcast
11:53 PM 61.0 °F 59.0 °F 93% 29.92 in 6.0 mi NE 5.8 mph - N/A   Overcast